This is the latest recevied weather packets stored in our database for station/object KD2VWU. If no packets are shown the sender has not sent any weather packets the latest 10 day(s).
| Time | Temp. | Humidity | Pressure | Rain* | Wind** | Luminosity | Snow |
|---|---|---|---|---|---|---|---|
| 1778022932 | 21.67° C | 57% | 1005.1 hPa | 0 mm | - | - | - |
| 1778022631 | 21.67° C | 58% | 1004.9 hPa | 0 mm | - | - | - |
| 1778022328 | 21.11° C | 58% | 1004.9 hPa | 0 mm | - | - | - |
| 1778022024 | 21.11° C | 59% | 1004.8 hPa | 0 mm | - | - | - |
| 1778021721 | 21.67° C | 57% | 1004.6 hPa | 0 mm | - | - | - |
| 1778021417 | 21.67° C | 58% | 1004.8 hPa | 0 mm | - | - | - |
| 1778021114 | 21.67° C | 59% | 1004.6 hPa | 0 mm | - | - | - |
| 1778020811 | 21.67° C | 59% | 1004.7 hPa | 0 mm | - | - | - |
| 1778020509 | 22.22° C | 57% | 1004.5 hPa | 0 mm | - | - | - |
| 1778020205 | 22.22° C | 57% | 1004.5 hPa | 0 mm | - | - | - |
| 1778019901 | 22.22° C | 57% | 1004.3 hPa | 0 mm | - | - | - |
| 1778019596 | 22.22° C | 58% | 1004.5 hPa | 0 mm | - | - | - |
| 1778019294 | 22.22° C | 57% | 1004.5 hPa | 0 mm | - | - | - |
| 1778018991 | 22.78° C | 57% | 1004.7 hPa | 0 mm | - | - | - |
| 1778018688 | 23.33° C | 54% | 1004.6 hPa | 0 mm | - | - | - |
| 1778018386 | 23.89° C | 54% | 1004.8 hPa | 0 mm | - | - | - |
| 1778018084 | 24.44° C | 53% | 1004.6 hPa | 0 mm | - | - | - |
| 1778017781 | 23.89° C | 53% | 1004.6 hPa | 0 mm | - | - | - |
| 1778017479 | 23.89° C | 52% | 1004.5 hPa | 0 mm | - | - | - |
| 1778017176 | 23.89° C | 52% | 1004.4 hPa | 0 mm | - | - | - |
| 1778016874 | 23.89° C | 53% | 1004.3 hPa | 0 mm | - | - | - |
| 1778016570 | 24.44° C | 53% | 1004.3 hPa | 0 mm | - | - | - |
| 1778016267 | 24.44° C | 52% | 1004.3 hPa | 0 mm | - | - | - |
| 1778015963 | 25° C | 52% | 1004.3 hPa | 0 mm | - | - | - |
| 1778015661 | 25° C | 50% | 1004.3 hPa | 0 mm | - | - | - |
* Rain latest hour (hover to see other rain measurements)
** Current wind speed in m/s (hover to see current wind gust speed)